Terminal Aerodrome Forecast
Issued by NWS

Home | Current Version | Previous Version | Text Only | Print | Product List | Glossary On
Versions: 1 2 3 4 5 6 7 8 9 10 11 12 13 14 15 16 17 18 19 20 21 22 23 24 25 26 27 28 29 30 31 32 33 34 35
000
FTUS45 KTWC 021740
TAFOLS
TAF
KOLS 021740Z 0218/0318 22016G25KT P6SM FEW250
     FM030300 25008KT P6SM SKC
     FM030600 14005KT P6SM SKC
     FM031700 20010KT P6SM SKC=

USA.gov is the U.S. government's official web portal to all federal, state and local government web resources and services.